New York, NY

5:21 AM EDT on October 18, 2017 (GMT -0400)
La Guardia

Weather History for KLGA - March, 2005

Change the Weather History Date:

Wednesday, March 9, 2005

  Actual Average Record
Temperature  
Mean Temperature 24 °F 40 °F  
Max Temperature 30 °F 47 °F 75 °F (2000)
Min Temperature 17 °F 33 °F 14 °F (1996)
Degree Days  
Heating Degree Days 42 25  
Month to date heating degree days 234  
Since 1 July heating degree days 3663  
Cooling Degree Days 0 0  
Month to date cooling degree days 0  
Year to date cooling degree days 0  
Moisture  
Dew Point 5 °F    
Average Humidity 45    
Maximum Humidity 52    
Minimum Humidity 35    
Precipitation  
Precipitation 0.00 in 0.12 in 2.18 in (1998)
Month to date precipitation 1.07  
Year to date precipitation 7.00  
Snow  
Snow 0.00 in 0.20 in 7.80 in (1984)
Month to date snowfall 1.9  
Since 1 July snowfall 23.9  
Snow Depth 3.00 in    
Sea Level Pressure  
Sea Level Pressure 29.73 in    
Wind  
Wind Speed 22 mph (WNW)    
Max Wind Speed 31 mph    
Max Gust Speed 41 mph    
Visibility 10 miles    
Events      
T = Trace of Precipitation, MM = Missing Value Source: NWS Daily Summary

Daily Weather History Graph

Daily Weather History Graph

Search for Another Location

Airport or City:

Trip Planner

Search our weather history database for the weather conditions in past years. The results will help you decide how hot, cold, wet, or windy it might be!

Date:

Astronomy

Mar. 09, 2005 Rise Set
Actual Time 6:16 AM EST 5:55 PM EST
Civil Twilight 5:49 AM EST 6:23 PM EST
Nautical Twilight 5:17 AM EST 6:54 PM EST
Astronomical Twilight 4:45 AM EST 7:26 PM EST
Moon 6:09 AM EST (3/9) 5:13 PM EST (3/9)
Length of Visible Light 12h 33m
Length of Day
11h 39m
Waning Crescent, 1% of the Moon is Illuminated
Mar 9
Waning Crescent
Mar 10
New
Mar 17
First Quarter
Mar 25
Full
Apr 1
Last Quarter

Hourly Weather History & Observations

Time (EST) Temp. Windchill Dew Point Humidity Pressure Visibility Wind Dir Wind Speed Gust Speed Precip Events Conditions
12:51 AM 18.0 °F -0.5 °F 1.9 °F 50% 29.55 in 10.0 mi WNW 26.5 mph 38.0 mph N/A   Partly Cloudy
1:51 AM 17.1 °F -2.7 °F 1.9 °F 52% 29.59 in 10.0 mi WNW 29.9 mph 38.0 mph N/A   Partly Cloudy
2:51 AM 17.1 °F -3.0 °F 1.0 °F 50% 29.60 in 10.0 mi WNW 31.1 mph 41.4 mph N/A   Clear
3:51 AM 17.1 °F 0.1 °F 1.9 °F 52% 29.63 in 10.0 mi WNW 20.7 mph 29.9 mph N/A   Clear
4:51 AM 17.1 °F 0.6 °F 1.0 °F 50% 29.67 in 10.0 mi NW 19.6 mph 29.9 mph N/A   Partly Cloudy
5:51 AM 17.1 °F 1.0 °F 1.0 °F 50% 29.69 in 10.0 mi WNW 18.4 mph 23.0 mph N/A   Partly Cloudy
6:51 AM 17.6 °F 0.9 °F 1.4 °F 49% 29.71 in 10.0 mi WNW 20.7 mph 26.5 mph N/A   Partly Cloudy
7:51 AM 19.0 °F 2.0 °F 1.9 °F 47% 29.73 in 10.0 mi West 23.0 mph 28.8 mph N/A   Partly Cloudy
8:51 AM 19.9 °F 2.8 °F 3.0 °F 48% 29.74 in 10.0 mi West 24.2 mph 31.1 mph N/A   Scattered Clouds
9:51 AM 21.9 °F 6.2 °F 3.9 °F 46% 29.75 in 10.0 mi WNW 21.9 mph 31.1 mph N/A   Scattered Clouds
10:51 AM 24.1 °F 8.3 °F 5.0 °F 44% 29.75 in 10.0 mi WNW 24.2 mph 29.9 mph N/A   Scattered Clouds
11:51 AM 26.1 °F 11.3 °F 6.1 °F 43% 29.74 in 10.0 mi WNW 23.0 mph 34.5 mph N/A   Scattered Clouds
12:51 PM 27.0 °F 12.2 °F 6.1 °F 41% 29.73 in 10.0 mi WNW 24.2 mph 31.1 mph N/A   Scattered Clouds
1:51 PM 28.0 °F 15.7 °F 5.0 °F 38% 29.72 in 10.0 mi WNW 17.3 mph 24.2 mph N/A   Scattered Clouds
2:51 PM 30.0 °F 17.2 °F 7.0 °F 38% 29.72 in 10.0 mi NW 20.7 mph 26.5 mph N/A   Scattered Clouds
3:51 PM 28.9 °F 16.9 °F 3.9 °F 35% 29.73 in 10.0 mi NW 17.3 mph 24.2 mph N/A   Partly Cloudy
4:51 PM 28.9 °F 19.2 °F 5.0 °F 36% 29.75 in 10.0 mi West 11.5 mph - N/A   Mostly Cloudy
5:51 PM 28.9 °F 16.9 °F 6.1 °F 38% 29.77 in 10.0 mi WNW 17.3 mph - N/A   Overcast
6:51 PM 28.9 °F 16.5 °F 5.0 °F 36% 29.79 in 10.0 mi West 18.4 mph - N/A   Mostly Cloudy
7:51 PM 28.0 °F 16.1 °F 6.1 °F 39% 29.80 in 10.0 mi WNW 16.1 mph - N/A   Mostly Cloudy
8:51 PM 28.0 °F 17.5 °F 10.0 °F 47% 29.82 in 10.0 mi WNW 12.7 mph - N/A   Scattered Clouds
9:51 PM 27.0 °F 16.7 °F 9.0 °F 47% 29.83 in 10.0 mi NW 11.5 mph - N/A   Mostly Cloudy
10:51 PM 26.1 °F 15.0 °F 10.0 °F 51% 29.83 in 10.0 mi NW 12.7 mph - N/A   Scattered Clouds
11:51 PM 26.1 °F 19.4 °F 8.1 °F 47% 29.82 in 10.0 mi WNW 5.8 mph - N/A   Partly Cloudy